Home   Weather   Sørumsand   Past weeks

Flag for Norway Past Weather in Sørumsand, Norway — Yesterday and Last 2 Weeks

Now
32 °F

Low clouds.


Feels Like: 26 °F
Forecast: 25 / 32 °F
Wind: 6 mph from Southwest

Location: Oslo Gardermoen Airport

Current Time: Jan 22, 2017 at 7:43:56 pm

Latest Report: Jan 22, 2017 at 6:50 pm


Visibility: 4 mi

Pressure: 30.09 "Hg

Humidity: 93%

Dew Point: 30 °F

Location of SørumsandLocation

Past Weather in Sørumsand — Graph

°F

Sørumsand Temperature Yesterday

Maximum temperature yesterday: 34 °F (at 1:50 pm)
Minimum temperature yesterday: 21 °F (at 11:20 pm)
Average temperature yesterday: 28 °F

High & Low Weather Summary for the Past Weeks

 TemperatureHumidityPressure
High48 °F (Jan 19, 1:20 pm)100% (Jan 7, 6:50 pm)30.39 "Hg (Jan 7, 6:50 pm)
Low12 °F (Jan 8, 2:50 am)53% (Jan 19, 6:50 pm)28.50 "Hg (Jan 11, 4:20 pm)
Average27 °F85%29.83 "Hg
* Reported Jan 7 5:20 pm — Jan 22 5:50 pm, Sørumsand, Weather by CustomWeather, © 2017

Note: Actual official high and low records may vary slightly from our data, if they occured in-between our weather recording intervals... More about our weather records

Advertising

Sørumsand Weather History for the Previous 24 Hours

Scroll right to see more
 ConditionsComfort  
Time TempWeatherWind HumidityBarometerVisibility
5:50 pm
Sun, Jan 22
32 °FLow clouds.6 mph93%30.09 "Hg4 mi
5:20 pm32 °FIce fog.6 mph93%30.09 "Hg2 mi
4:50 pm32 °FMostly cloudy.7 mph93%30.09 "Hg5 mi
4:20 pm32 °FMostly cloudy.7 mph93%30.09 "Hg4 mi
3:50 pm32 °FIce fog.7 mph93%30.09 "Hg2 mi
3:20 pm32 °FIce fog.8 mph100%30.12 "Hg2 mi
2:50 pm32 °FChilly.8 mph100%30.12 "Hg3 mi
2:20 pm32 °FIce fog.6 mph93%30.12 "Hg1 mi
1:50 pm32 °FIce fog.7 mph93%30.12 "Hg1 mi
1:20 pm32 °FIce fog.6 mph93%30.15 "Hg1 mi
12:50 pm32 °FIce fog.6 mph93%30.15 "Hg1 mi
12:20 pm30 °FIce fog.3 mph100%30.18 "Hg1 mi
11:50 am30 °FIce fog.1 mph93%30.18 "Hg1 mi
11:20 am30 °FIce fog.2 mph93%30.18 "Hg1 mi
10:50 am28 °FIce fog.1 mph93%30.18 "Hg1 mi
10:20 am28 °FIce fog.2 mph93%30.18 "Hg1 mi
9:50 am28 °FSleet. Cloudy.3 mph100%30.18 "Hg1 mi
9:20 am30 °FChilly.3 mph93%30.18 "Hg2 mi
8:50 am28 °FIce fog.3 mph100%30.21 "Hg1 mi
8:20 am27 °FIce fog.No wind100%30.21 "Hg1 mi
7:50 am27 °FIce fog.No wind93%30.21 "Hg1 mi
7:20 am27 °FIce fog.No wind93%30.21 "Hg1 mi
6:50 am25 °FIce fog.No wind100%30.21 "Hg1 mi
6:20 am25 °FCold.1 mph100%30.21 "Hg1 mi
5:50 am25 °FIce fog.2 mph100%30.24 "HgN/A
5:20 am25 °FIce fog.No wind93%30.24 "Hg1 mi
4:50 am25 °FIce fog.1 mph93%30.24 "Hg1 mi
4:20 am25 °FIce fog.No wind100%30.24 "Hg1 mi
3:50 am25 °FIce fog.No wind100%30.24 "Hg1 mi
3:20 am25 °FIce fog.No wind100%30.27 "Hg1 mi
2:50 am25 °FIce fog.2 mph93%30.27 "Hg1 mi
2:20 am25 °FIce fog.2 mph93%30.27 "Hg1 mi
1:50 am23 °FIce fog.No wind100%30.27 "Hg1 mi
1:20 am23 °FCold.3 mph93%30.27 "Hg1 mi
12:20 am23 °FCold.No wind93%30.27 "Hg1 mi
11:50 pm
Sat, Jan 21
23 °FIce fog.2 mph93%30.30 "Hg1 mi
11:20 pm21 °FCold.1 mph93%30.30 "Hg1 mi
10:50 pm23 °FIce fog.No wind93%30.30 "Hg1 mi
10:20 pm25 °FIce fog.2 mph93%30.30 "Hg1 mi
9:50 pm25 °FCold.No wind93%30.30 "Hg6 mi
9:20 pm23 °FCold.No wind100%30.30 "Hg6 mi
8:50 pm25 °FFog.No wind100%30.30 "Hg6 mi
8:20 pm25 °FFog.No wind100%30.33 "Hg6 mi
7:50 pm27 °FLight fog.No wind93%30.33 "HgN/A
7:20 pm27 °FClear.No wind93%30.33 "Hg10 mi
Weather by CustomWeather, © 2017

See weather overviewHow to use our weather pages